Home   Weather   Melhus   Past weeks

Flag for Norway Past Weather in Melhus, Norway — Yesterday and Last 2 Weeks

Now
46 °F

Partly cloudy.


Feels Like: 40 °F
Forecast: 35 / 51 °F
Wind: 15 mph from Southwest

Location: Trondheim / Vaernes

Current Time: Oct 1, 2016 at 7:21:34 PM

Latest Report: Oct 1, 2016 at 6:50 PM


Visibility: N/A

Pressure: 29.77 "Hg

Humidity: 82%

Dew Point: 41 °F

Location of MelhusLocation

Past Weather in Melhus — Graph

°F

Melhus Temperature Yesterday

Maximum temperature yesterday: 52 °F (at 12:20 AM)
Minimum temperature yesterday: 45 °F (at 8:50 AM)
Average temperature yesterday: 48 °F

High & Low Weather Summary for the Past Weeks

 TemperatureHumidityPressure
High72 °F (Sep 25, 3:50 PM)100% (Sep 17, 6:20 AM)30.21 "Hg (Sep 17, 6:20 AM)
Low43 °F (Sep 27, 6:20 AM)44% (Sep 25, 3:50 PM)28.80 "Hg (Sep 29, 6:20 PM)
Average55 °F81%29.85 "Hg
* Reported Sep 16 5:20 PM — Oct 1 5:50 PM, Melhus, Weather by CustomWeather, © 2016

Note: Actual official high and low records may vary slightly from our data, if they occured in-between our weather recording intervals... More about our weather records

Advertising

Melhus Weather History for the Previous 24 Hours

Scroll right to see more
 ConditionsComfort  
Time TempWeatherWind HumidityBarometerVisibility
5:50 PM
Sat, Oct 1
48 °FSprinkles. Partly sunny.14 mph76%29.74 "HgN/A
5:20 PM48 °FScattered showers. Partly sunny.16 mph71%29.74 "HgN/A
4:50 PM48 °FPartly sunny.13 mph76%29.71 "HgN/A
4:20 PM50 °FBroken clouds.15 mph67%29.71 "HgN/A
3:50 PM50 °FPartly sunny.16 mph67%29.71 "HgN/A
3:20 PM50 °FPartly sunny.16 mph71%29.71 "HgN/A
2:50 PM50 °FBroken clouds.17 mph71%29.71 "HgN/A
2:20 PM50 °FPartly sunny.14 mph71%29.68 "HgN/A
1:50 PM48 °FBroken clouds.16 mph82%29.68 "HgN/A
1:20 PM48 °FBroken clouds.16 mph76%29.68 "HgN/A
12:50 PM48 °FLight rain. Broken clouds.16 mph82%29.65 "HgN/A
12:20 PM48 °FScattered showers. Broken clouds.18 mph76%29.65 "HgN/A
11:50 AM48 °FLight rain. Broken clouds.18 mph76%29.62 "HgN/A
11:20 AM48 °FScattered showers. Partly sunny.17 mph76%29.62 "HgN/A
10:50 AM48 °FScattered clouds.16 mph76%29.59 "HgN/A
10:20 AM46 °FScattered clouds.16 mph82%29.59 "HgN/A
9:50 AM46 °FScattered showers. Broken clouds.17 mph82%29.56 "HgN/A
9:20 AM46 °FPartly sunny.16 mph82%29.56 "HgN/A
8:50 AM46 °FDrizzle. Broken clouds.18 mph82%29.53 "HgN/A
8:20 AM46 °FScattered showers. Broken clouds.18 mph82%29.53 "HgN/A
7:50 AM46 °FRain showers. Partly sunny.23 mph87%29.50 "HgN/A
7:20 AM48 °FSprinkles. Partly cloudy.22 mph82%29.50 "HgN/A
6:50 AM48 °FPartly cloudy.18 mph82%29.47 "HgN/A
6:20 AM48 °FSprinkles. Passing clouds.21 mph82%29.47 "HgN/A
5:50 AM46 °FPartly cloudy.25 mph87%29.45 "HgN/A
5:20 AM46 °FSprinkles. Partly cloudy.24 mph87%29.42 "HgN/A
4:50 AM46 °FSprinkles. Passing clouds.22 mph87%29.42 "HgN/A
3:50 AM48 °FSprinkles. Passing clouds.36 mph82%29.39 "HgN/A
1:50 AM46 °FRain showers. Passing clouds.22 mph87%29.33 "HgN/A
12:50 AM46 °FRain showers. Passing clouds.24 mph87%29.30 "Hg6 mi
12:20 AM46 °FRain showers. Passing clouds.21 mph82%29.27 "HgN/A
11:50 PM
Fri, Sep 30
46 °FPassing clouds.21 mph82%29.27 "HgN/A
11:20 PM46 °FPassing clouds.17 mph82%29.27 "HgN/A
10:50 PM46 °FPassing clouds.17 mph82%29.27 "HgN/A
10:20 PM46 °FScattered showers. Passing clouds.17 mph87%29.24 "HgN/A
9:50 PM48 °FPartly cloudy.20 mph82%29.24 "HgN/A
9:20 PM48 °FLight rain. Partly cloudy.21 mph82%29.21 "HgN/A
8:50 PM46 °FMostly cloudy.2 mph93%29.21 "HgN/A
8:20 PM46 °FPartly cloudy.2 mph93%29.18 "HgN/A
7:50 PM48 °FPartly cloudy.6 mph87%29.18 "HgN/A
7:20 PM48 °FPassing clouds.6 mph87%29.15 "HgN/A
Weather by CustomWeather, © 2016

See weather overviewHow to use our weather pages